| time (UTC) | temp F | wind direction | speed MPH | gust MPH | rain 1hr in | rain 24hr in | rain mn in | humidity % | barometer mb |
| 20260505234607 | 53 | 0 | 0.0 | 0.0 | 0.00 | 0.00 | 0.00 | 96 | 1024.9 |
| 20260505233053 | 53 | 0 | 0.0 | 0.0 | 0.00 | 0.00 | 0.00 | 96 | 1024.9 |
| 20260505231556 | 53 | 0 | 0.0 | 0.0 | 0.00 | 0.00 | 0.00 | 97 | 1024.9 |
| 20260505230052 | 53 | 0 | 0.0 | 0.0 | 0.00 | 0.00 | 0.00 | 96 | 1024.7 |
| 20260505224555 | 53 | 0 | 0.0 | 0.0 | 0.00 | 0.00 | 0.00 | 96 | 1024.4 |
| 20260505223052 | 52 | 0 | 0.0 | 0.0 | 0.00 | 0.00 | 0.00 | 96 | 1024.5 |
| 20260505221553 | 52 | 0 | 0.0 | 0.0 | 0.00 | 0.00 | 0.00 | 96 | 1024.4 |
| 20260505220055 | 52 | 0 | 0.0 | 0.0 | 0.00 | 0.00 | 0.00 | 95 | 1024.4 |
| 20260505214622 | 52 | 0 | 0.0 | 0.0 | 0.00 | 0.00 | 0.00 | 95 | 1024.3 |
| 20260505213100 | 52 | 0 | 0.0 | 0.0 | 0.00 | 0.00 | 0.00 | 94 | 1024.1 |
| 20260505211555 | 52 | 0 | 0.0 | 0.0 | 0.00 | 0.00 | 0.00 | 94 | 1024.0 |
| 20260505210058 | 51 | 0 | 0.0 | 0.0 | 0.00 | 0.00 | 0.00 | 93 | 1024.0 |
| 20260505204604 | 51 | 0 | 0.0 | 0.0 | 0.00 | 0.00 | 0.00 | 93 | 1024.0 |
| 20260505203055 | 51 | 0 | 0.0 | 0.0 | 0.00 | 0.00 | 0.00 | 93 | 1024.0 |
| 20260505201556 | 51 | 0 | 0.0 | 0.0 | 0.00 | 0.00 | 0.00 | 92 | 1023.9 |
| 20260505200105 | 51 | 0 | 0.0 | 0.0 | 0.00 | 0.00 | 0.00 | 92 | 1024.0 |
| 20260505194605 | 51 | 0 | 0.0 | 0.0 | 0.00 | 0.00 | 0.00 | 91 | 1024.0 |
| 20260505193100 | 51 | 0 | 0.0 | 0.0 | 0.00 | 0.00 | 0.00 | 91 | 1024.0 |
| 20260505191556 | 51 | 0 | 0.0 | 0.0 | 0.00 | 0.00 | 0.00 | 91 | 1024.0 |
| 20260505190055 | 51 | 0 | 0.0 | 0.0 | 0.00 | 0.00 | 0.00 | 91 | 1024.0 |
| 20260505184555 | 51 | 0 | 0.0 | 0.0 | 0.00 | 0.00 | 0.00 | 91 | 1024.0 |
| 20260505183051 | 51 | 0 | 0.0 | 0.0 | 0.00 | 0.00 | 0.00 | 92 | 1024.1 |
| 20260505181551 | 51 | 0 | 0.0 | 0.0 | 0.00 | 0.00 | 0.00 | 92 | 1024.0 |
| 20260505180107 | 51 | 0 | 0.0 | 0.0 | 0.00 | 0.00 | 0.00 | 92 | 1024.1 |
| 20260505174602 | 51 | 0 | 0.0 | 0.0 | 0.00 | 0.00 | 0.00 | 92 | 1024.1 |
| 20260505173053 | 51 | 0 | 0.0 | 0.0 | 0.00 | 0.00 | 0.00 | 93 | 1024.2 |
| 20260505171550 | 51 | 0 | 0.0 | 0.0 | 0.00 | 0.00 | 0.00 | 93 | 1024.4 |
| 20260505170052 | 51 | 0 | 0.0 | 0.0 | 0.00 | 0.00 | 0.00 | 93 | 1024.4 |
| 20260505164553 | 51 | 0 | 0.0 | 0.0 | 0.00 | 0.00 | 0.00 | 93 | 1024.6 |
| 20260505163056 | 51 | 0 | 0.0 | 0.0 | 0.00 | 0.00 | 0.00 | 93 | 1024.7 |
| 20260505161610 | 51 | 0 | 0.0 | 0.0 | 0.00 | 0.00 | 0.00 | 93 | 1024.8 |
| 20260505160104 | 51 | 0 | 0.0 | 0.0 | 0.00 | 0.00 | 0.00 | 93 | 1024.9 |
| 20260505153056 | 51 | 0 | 0.0 | 0.0 | 0.00 | 0.00 | 0.00 | 92 | 1025.2 |
| 20260505151601 | 51 | 0 | 0.0 | 0.0 | 0.00 | 0.00 | 0.00 | 91 | 1025.3 |
| 20260505150108 | 51 | 0 | 0.0 | 0.0 | 0.00 | 0.00 | 0.00 | 90 | 1025.3 |
| 20260505140105 | 51 | 0 | 0.0 | 0.0 | 0.00 | 0.00 | 0.00 | 90 | 1025.5 |
| 20260505124554 | 51 | 0 | 0.0 | 0.0 | 0.00 | 0.00 | 0.00 | 90 | 1026.3 |
| 20260505123104 | 51 | 0 | 0.0 | 0.0 | 0.00 | 0.00 | 0.00 | 90 | 1026.4 |
| 20260505121555 | 52 | 0 | 0.0 | 0.0 | 0.00 | 0.00 | 0.00 | 90 | 1026.3 |
| 20260505120056 | 52 | 0 | 0.0 | 0.0 | 0.00 | 0.00 | 0.00 | 90 | 1026.4 |
| 20260505114555 | 52 | 0 | 0.0 | 0.0 | 0.00 | 0.00 | 0.00 | 90 | 1026.4 |
| 20260505113111 | 51 | 0 | 0.0 | 0.0 | 0.00 | 0.00 | 0.00 | 90 | 1026.4 |
| 20260505111557 | 51 | 0 | 0.0 | 0.0 | 0.00 | 0.00 | 0.00 | 90 | 1026.5 |
| 20260505101555 | 51 | 0 | 0.0 | 0.0 | 0.00 | 0.00 | 0.00 | 90 | 1026.3 |
| 20260505100055 | 51 | 0 | 0.0 | 0.0 | 0.00 | 0.00 | 0.00 | 90 | 1026.4 |
| 20260505094558 | 51 | 0 | 0.0 | 0.0 | 0.00 | 0.00 | 0.00 | 89 | 1026.4 |
| 20260505093053 | 51 | 0 | 0.0 | 0.0 | 0.00 | 0.00 | 0.00 | 89 | 1026.3 |
| 20260505091614 | 51 | 0 | 0.0 | 0.0 | 0.00 | 0.00 | 0.00 | 88 | 1026.0 |
| 20260505090056 | 51 | 0 | 0.0 | 0.0 | 0.00 | 0.00 | 0.00 | 87 | 1026.0 |
| 20260505084556 | 52 | 0 | 0.0 | 0.0 | 0.00 | 0.00 | 0.00 | 85 | 1025.8 |
| 20260505083103 | 53 | 0 | 0.0 | 0.0 | 0.00 | 0.00 | 0.00 | 85 | 1025.7 |
| 20260505081603 | 53 | 0 | 0.0 | 0.0 | 0.00 | 0.03 | 0.00 | 84 | 1025.5 |
| 20260505080118 | 54 | 0 | 0.0 | 0.0 | 0.00 | 0.03 | 0.00 | 85 | 1025.3 |
| 20260505074608 | 55 | 0 | 0.0 | 0.0 | 0.00 | 0.03 | 0.00 | 86 | 1025.2 |
| 20260505073108 | 54 | 0 | 0.0 | 0.0 | 0.00 | 0.03 | 0.00 | 86 | 1025.2 |
| 20260505071605 | 54 | 0 | 0.0 | 0.0 | 0.00 | 0.12 | 0.00 | 85 | 1025.2 |
| 20260505070053 | 55 | 0 | 0.0 | 0.0 | 0.00 | 0.12 | 0.00 | 83 | 1025.3 |
| 20260505064555 | 56 | 0 | 0.0 | 0.0 | 0.00 | 0.12 | 0.00 | 84 | 1025.3 |
| 20260505063114 | 55 | 0 | 0.0 | 0.0 | 0.00 | 0.12 | 0.00 | 85 | 1025.3 |
| 20260505061623 | 55 | 0 | 0.0 | 0.0 | 0.00 | 0.12 | 0.00 | 84 | 1025.2 |
| 20260505060104 | 56 | 0 | 0.0 | 0.0 | 0.00 | 0.12 | 0.00 | 83 | 1025.0 |
| 20260505054603 | 56 | 0 | 0.0 | 0.0 | 0.00 | 0.12 | 0.00 | 83 | 1025.0 |
| 20260505053100 | 56 | 0 | 0.0 | 0.0 | 0.00 | 0.12 | 0.00 | 83 | 1024.9 |
| 20260505051614 | 56 | 0 | 0.0 | 0.0 | 0.00 | 0.22 | 0.00 | 83 | 1024.7 |
| 20260505041601 | 56 | 0 | 0.0 | 0.0 | 0.00 | 0.22 | 0.00 | 83 | 1024.8 |
| 20260505040057 | 56 | 0 | 0.0 | 0.0 | 0.00 | 0.22 | 0.00 | 83 | 1024.8 |
| 20260505034556 | 55 | 0 | 0.0 | 0.0 | 0.00 | 0.22 | 0.00 | 83 | 1024.9 |
| 20260505033055 | 55 | 0 | 0.0 | 0.0 | 0.00 | 0.22 | 0.00 | 85 | 1025.0 |
| 20260505031557 | 55 | 0 | 0.0 | 0.0 | 0.00 | 0.22 | 0.00 | 89 | 1025.1 |
| 20260505030052 | 54 | 0 | 0.0 | 0.0 | 0.00 | 0.22 | 0.00 | 89 | 1025.3 |
| 20260505024555 | 54 | 0 | 0.0 | 0.0 | 0.00 | 0.22 | 0.00 | 92 | 1025.6 |
| 20260505023054 | 53 | 0 | 0.0 | 0.0 | 0.00 | 0.22 | 0.00 | 93 | 1025.7 |
| 20260505021553 | 53 | 0 | 0.0 | 0.0 | 0.00 | 0.22 | 0.00 | 95 | 1025.7 |
| 20260505020103 | 52 | 0 | 0.0 | 0.0 | 0.00 | 0.22 | 0.00 | 95 | 1025.8 |
| 20260505014553 | 52 | 0 | 0.0 | 0.0 | 0.00 | 0.22 | 0.00 | 96 | 1026.0 |
| 20260505013103 | 52 | 0 | 0.0 | 0.0 | 0.00 | 0.22 | 0.00 | 97 | 1026.0 |
| 20260505011553 | 51 | 0 | 0.0 | 0.0 | 0.00 | 0.22 | 0.00 | 97 | 1025.7 |
| 20260505010110 | 51 | 0 | 0.0 | 0.0 | 0.00 | 0.22 | 0.00 | 97 | 1025.6 |
| 20260505004555 | 51 | 0 | 0.0 | 0.0 | 0.00 | 0.22 | 0.00 | 97 | 1025.5 |
| 20260505003056 | 51 | 0 | 0.0 | 0.0 | 0.00 | 0.22 | 0.00 | 97 | 1025.3 |
| 20260505001557 | 51 | 0 | 0.0 | 0.0 | 0.00 | 0.22 | 0.00 | 97 | 1025.1 |
| 20260505000100 | 50 | 0 | 0.0 | 0.0 | 0.00 | 0.22 | 0.00 | 97 | 1025.0 |